EW9733 Weather Reports


time (UTC)temp
C
wind
direction
speed
KPH
gust
KPH
rain 1hr
cm
rain 24hr
cm
rain mn
cm
humidity
%
barometer
mb
20260902010042 17 121 0.0 0.0 0.00 0.13 0.13 89 1017.7
20260902004533 17 121 0.0 0.0 0.00 0.13 0.13 89 1017.3
20260902003025 17 121 0.0 0.0 0.00 0.13 0.13 89 1017.3
20260902001524 17 121 0.0 0.0 0.00 0.13 0.13 88 1017.4
20260902000036 17 121 0.0 0.0 0.00 0.13 0.13 88 1017.6
20260901234546 18 121 0.0 0.0 0.00 0.13 0.13 88 1017.4
20260901233019 18 121 0.0 0.0 0.00 0.13 0.13 88 1017.3
20260901231519 18 121 0.0 0.0 0.00 0.13 0.13 87 1017.3
20260901230017 18 121 0.0 0.0 0.00 0.13 0.13 87 1017.1
20260901224517 18 121 0.0 0.0 0.00 0.13 0.13 86 1017.1
20260901223027 18 120 0.0 3.2 0.00 0.13 0.13 86 1017.1
20260901221522 18 120 0.0 1.6 0.00 0.13 0.13 86 1017.2
20260901220018 18 119 0.0 0.0 0.00 0.13 0.13 85 1017.3
20260901214512 18 119 0.0 1.6 0.00 0.13 0.13 84 1017.1
20260901213011 19 119 0.0 0.0 0.00 0.13 0.13 84 1017.1
20260901211513 19 119 0.0 0.0 0.00 0.13 0.13 84 1017.0
20260901210010 19 119 0.0 0.0 0.00 0.13 0.13 83 1016.9
20260901204508 18 119 0.0 1.6 0.00 0.13 0.13 84 1016.8
20260901203017 19 119 0.0 3.2 0.00 0.13 0.13 84 1016.6
20260901201508 18 119 0.0 6.4 0.00 0.13 0.13 84 1016.5
20260901200020 19 117 0.0 1.6 0.00 0.13 0.13 85 1016.5
20260901194507 19 124 0.0 3.2 0.00 0.13 0.13 86 1016.5
20260901193007 18 123 0.0 6.4 0.00 0.13 0.13 85 1016.5
20260901191512 19 133 0.0 3.2 0.00 0.13 0.13 87 1016.4
20260901190017 19 132 0.0 4.8 0.03 0.13 0.13 87 1016.3
20260901184505 20 136 0.0 9.7 0.03 0.13 0.13 87 1016.3
20260901183013 20 121 0.0 4.8 0.03 0.13 0.13 87 1016.2
20260901181505 20 82 0.0 1.6 0.03 0.13 0.13 87 1016.1
20260901180003 20 82 0.0 0.0 0.00 0.10 0.10 86 1016.0
20260901174504 20 82 0.0 1.6 0.00 0.10 0.10 85 1015.9
20260901173003 21 96 0.0 4.8 0.00 0.10 0.10 86 1015.7
20260901171502 21 61 0.0 8.0 0.00 0.10 0.10 84 1016.0
20260901170104 21 46 1.6 8.0 0.00 0.10 0.10 82 1016.1
20260901164633 21 71 0.0 3.2 0.00 0.10 0.10 81 1016.0
20260901163100 21 89 0.0 8.0 0.03 0.10 0.10 82 1015.7
20260901161600 21 147 0.0 3.2 0.03 0.10 0.10 83 1016.0
20260901160100 21 101 0.0 8.0 0.03 0.10 0.10 84 1016.0
20260901154554 21 46 0.0 9.7 0.03 0.10 0.10 86 1016.1
20260901153051 21 98 1.6 4.8 0.00 0.08 0.08 89 1016.3
20260901151549 20 131 0.0 4.8 0.00 0.08 0.08 90 1016.2
20260901150045 20 47 0.0 4.8 0.00 0.08 0.08 90 1016.5
20260901144543 20 77 1.6 6.4 0.00 0.08 0.08 90 1016.6
20260901143045 20 52 0.0 4.8 0.03 0.08 0.08 91 1016.6
20260901141552 20 88 0.0 3.2 0.03 0.08 0.08 91 1016.6
20260901140043 19 137 0.0 0.0 0.08 0.08 0.08 91 1016.8
20260901134539 19 137 0.0 0.0 0.08 0.08 0.08 91 1016.7
20260901133041 19 137 0.0 0.0 0.05 0.05 0.05 91 1016.6
20260901131535 19 137 0.0 0.0 0.03 0.03 0.03 90 1016.8
20260901130031 18 137 0.0 0.0 0.00 0.00 0.00 90 1016.6
20260901124530 18 137 0.0 1.6 0.00 0.00 0.00 90 1016.5
20260901123029 18 137 0.0 0.0 0.00 0.00 0.00 90 1016.7
20260901121529 18 137 0.0 0.0 0.00 0.00 0.00 90 1016.5
20260901120028 18 137 0.0 0.0 0.00 0.00 0.00 90 1016.4
20260901114526 18 137 0.0 0.0 0.00 0.00 0.00 90 1016.4
20260901113026 18 137 0.0 0.0 0.00 0.00 0.00 90 1016.3
20260901111525 18 137 0.0 0.0 0.00 0.00 0.00 90 1016.2
20260901110036 18 137 0.0 0.0 0.00 0.00 0.00 90 1016.2
20260901104520 18 137 0.0 0.0 0.00 0.03 0.00 90 1016.1
20260901103020 18 137 0.0 0.0 0.00 0.03 0.00 90 1016.1
20260901101520 18 137 0.0 0.0 0.00 0.03 0.00 89 1015.9
20260901100017 18 137 0.0 1.6 0.00 0.03 0.00 89 1015.8
20260901094525 18 137 0.0 0.0 0.00 0.03 0.00 89 1015.8
20260901093017 18 137 0.0 0.0 0.00 0.03 0.00 89 1015.8
20260901091514 18 137 0.0 1.6 0.00 0.03 0.00 89 1015.9
20260901090014 18 137 0.0 1.6 0.00 0.03 0.00 89 1015.9
20260901084512 18 137 0.0 0.0 0.00 0.03 0.00 89 1015.9
20260901083012 18 137 0.0 0.0 0.00 0.03 0.00 89 1016.1
20260901081512 18 137 0.0 0.0 0.00 0.03 0.00 89 1016.3
20260901080008 18 137 0.0 0.0 0.00 0.03 0.00 89 1016.4
20260901074507 18 137 0.0 1.6 0.00 0.03 0.00 89 1016.4
20260901073015 18 136 0.0 1.6 0.00 0.03 0.00 88 1016.4
20260901071505 18 136 0.0 0.0 0.00 0.03 0.00 88 1016.6
20260901070007 18 136 0.0 1.6 0.00 0.03 0.00 88 1016.5
20260901064509 18 136 0.0 1.6 0.00 0.03 0.00 88 1016.7
20260901063002 18 136 0.0 1.6 0.00 0.03 0.00 87 1016.7
20260901061502 18 136 0.0 1.6 0.00 0.03 0.00 87 1016.7
20260901060001 18 136 0.0 3.2 0.00 0.03 0.00 87 1016.8
20260901054602 18 136 0.0 3.2 0.00 0.03 0.00 86 1016.8
20260901054502 18 136 0.0 3.2 0.00 0.03 0.00 86 1016.7
20260901053120 18 135 0.0 1.6 0.00 0.03 0.00 86 1016.7
20260901051600 18 128 0.0 1.6 0.00 0.03 0.00 86 1016.9
20260901050057 18 127 0.0 4.8 0.00 0.03 0.00 85 1017.0
20260901044555 18 115 0.0 1.6 0.00 0.03 0.00 85 1016.9
20260901043117 18 114 0.0 1.6 0.00 0.03 0.00 84 1016.9
20260901041605 18 116 0.0 1.6 0.00 0.03 0.00 84 1017.1
20260901040101 18 142 0.0 1.6 0.00 0.03 0.00 84 1017.1
20260901034602 18 142 0.0 3.2 0.00 0.23 0.03 84 1017.0
20260901033102 18 141 0.0 3.2 0.00 0.23 0.03 84 1017.0
20260901031550 18 144 0.0 6.4 0.00 0.23 0.03 84 1017.1
20260901030049 18 161 0.0 6.4 0.00 0.23 0.03 84 1017.1
20260901024554 18 130 0.0 6.4 0.00 0.23 0.03 83 1017.0
20260901023047 18 161 0.0 1.6 0.00 0.23 0.03 83 1017.1
20260901021547 19 51 0.0 3.2 0.00 0.23 0.03 83 1017.2
20260901020047 19 155 0.0 8.0 0.00 0.23 0.03 84 1017.2
20260901014546 19 140 0.0 4.8 0.00 0.23 0.03 84 1017.3
20260901013046 19 151 0.0 8.0 0.00 0.23 0.03 84 1017.3
20260901011554 19 163 0.0 4.8 0.00 0.23 0.03 83 1017.2